Regional Weather Roundup
Issued by NWS

Home | Current Version | Previous Version | Graphics & Text | Print | Product List | Glossary On
Versions: 1 2 3 4 5 6 7 8 9 10 11 12 13 14 15 16 17 18 19 20 21 22 23 24 25 26 27 28 29 30 31 32 33 34 35 36 37 38 39 40 41 42 43 44 45 46 47 48 49 50
225
ASUS43 KDTX 300001
RWRMI
MICHIGAN HOURLY REGIONAL WEATHER ROUNDUP
NATIONAL WEATHER SERVICE DETROIT/PONTIAC MI
800 PM EDT FRI APR 29 2016

NOTE: "FAIR" INDICATES FEW OR NO CLOUDS BELOW 12,000 FEET WITH NO
SIGNIFICANT WEATHER AND/OR OBSTRUCTION TO VISIBILITY.

MIZ047>049-052>055-059>063-066>070-074>076-081>083-300100-
SOUTHEAST LOWER MICHIGAN

CITY           SKY/WX    TMP DP  RH WIND       PRES   REMARKS
ADRIAN         CLOUDY    50  40  68 SE10      30.12S
6HR MIN TEMP:  50; 6HR MAX TEMP:  55;

ALMA           CLOUDY    49  37  62 E7        30.16R
ANN ARBOR      CLOUDY    49  37  63 SE5       30.13R
BAD AXE        CLEAR     46  28  50 NE5       30.15F
6HR MIN TEMP:  45; 6HR MAX TEMP:  53;

CARO           CLEAR     49  32  52 NE7       30.13R
DETROIT CITY   CLOUDY    50  32  50 E5        30.14R
6HR MIN TEMP:  45; 6HR MAX TEMP:  52;

DETROIT        CLOUDY    51  36  56 E5        30.14R
6HR MIN TEMP:  49; 6HR MAX TEMP:  52;

FLINT          CLOUDY    52  34  50 SE3       30.15R
6HR MIN TEMP:  48; 6HR MAX TEMP:  54;

GROSSE ILE     CLOUDY    48  39  71 CALM      30.13S
HILLSDALE      CLOUDY    50  40  68 E6        30.11R
6HR MIN TEMP:  50; 6HR MAX TEMP:  53;

HOWELL         CLOUDY    50  37  62 CALM      30.14R
6HR MIN TEMP:  46; 6HR MAX TEMP:  50;


CITY           SKY/WX    TMP DP  RH WIND       PRES   REMARKS
JACKSON        CLOUDY    50  38  63 N8        30.13R
6HR MIN TEMP:  50; 6HR MAX TEMP:  54;

LAMBERTVILLE   CLOUDY    49  38  66 E7        30.13S
6HR MIN TEMP:  49; 6HR MAX TEMP:  56;

LANSING        CLOUDY    49  39  68 NW3       30.15R
6HR MIN TEMP:  46; 6HR MAX TEMP:  51;

LAPEER         CLOUDY    50  32  49 CALM      30.15R
6HR MIN TEMP:  45; 6HR MAX TEMP:  51;

MASON          CLOUDY    48  39  71 N3        30.13S
MONROE         CLOUDY    48  39  72 S6        30.13S
6HR MIN TEMP:  48; 6HR MAX TEMP:  51;

PONTIAC        CLOUDY    50  33  52 E5        30.13R
6HR MIN TEMP:  44; 6HR MAX TEMP:  51;

PORT HOPE        N/A     43  32  65 NW3       30.16R
6HR MIN TEMP:  42; 6HR MAX TEMP:  45;

PORT HURON     CLOUDY    45  30  57 NE7       30.16R
TRI CITIES     PTCLDY    51  33  50 NE7       30.16R
6HR MIN TEMP:  49; 6HR MAX TEMP:  54;

MIDLAND        FAIR      50  34  53 E7        30.15R
6HR MIN TEMP:  49; 6HR MAX TEMP:  53;

TROY           CLOUDY    51  31  46 NE8       30.15S
SAGINAW HB     MOCLDY    48  36  61 N5        30.16R
$$
MIZ043>046-050>051-056>058-064>065-071>073-077>080-300100-
SOUTHWEST LOWER MICHIGAN

CITY           SKY/WX    TMP DP  RH WIND       PRES   REMARKS
BATTLE CREEK   CLOUDY    50  40  68 NE12      30.13R
6HR MIN TEMP:  49; 6HR MAX TEMP:  53;

BENTON HARBOR  CLOUDY    46  39  76 N6        30.11F
6HR MIN TEMP:  46; 6HR MAX TEMP:  49;

BIG RAPIDS     CLEAR     53  32  45 SE9       30.13R
6HR MIN TEMP:  49; 6HR MAX TEMP:  55;

COLDWATER      CLOUDY    52  42  68 N7        30.10S
6HR MIN TEMP:  52; 6HR MAX TEMP:  54;

FREMONT        CLOUDY    54  34  46 S3        30.12S
6HR MIN TEMP:  47; 6HR MAX TEMP:  56;

HOLLAND        CLOUDY    47  41  80 CALM      30.15R
6HR MIN TEMP:  47; 6HR MAX TEMP:  54;

GRAND RAPIDS   MOCLDY    50  39  66 SE7       30.14R
6HR MIN TEMP:  47; 6HR MAX TEMP:  54;

IONIA          CLOUDY    47  38  70 E3        30.14R
6HR MIN TEMP:  44; 6HR MAX TEMP:  50;

KALAMAZOO      CLOUDY    52  40  63 N7        30.12S
6HR MIN TEMP:  52; 6HR MAX TEMP:  54;

LUDINGTON      CLEAR     48  35  61 NW5       30.15R
6HR MIN TEMP:  47; 6HR MAX TEMP:  52;

MARSHALL       CLOUDY    50  40  67 NE5       30.11S
MOUNT PLEASANT MOCLDY    51  35  53 E8        30.15R
6HR MIN TEMP:  51; 6HR MAX TEMP:  55;

MUSKEGON       MOCLDY    48  36  63 NW8       30.14R
6HR MIN TEMP:  48; 6HR MAX TEMP:  55;

$$
MIZ016>042-300100-
NORTHERN LOWER MICHIGAN

CITY           SKY/WX    TMP DP  RH WIND       PRES   REMARKS
ALPENA         CLEAR     46  30  53 SE10      30.15R
6HR MIN TEMP:  46; 6HR MAX TEMP:  55;

BEAVER ISLAND  CLEAR     51  31  46 CALM      30.15R
6HR MIN TEMP:  50; 6HR MAX TEMP:  56;

BELLAIRE       CLEAR     58  28  32 NE9       30.12R
6HR MIN TEMP:  57; 6HR MAX TEMP:  62;

CADILLAC       PTCLDY    53  33  45 SE3       30.11R
CHARLEVOIX     CLEAR     49  32  51 N7        30.18R
FRANKFORT      CLEAR     52  33  47 NE8       30.12R
GAYLORD        CLEAR     54  28  36 NE8       30.14R
6HR MIN TEMP:  53; 6HR MAX TEMP:  57;

HARBOR SPRINGS CLEAR     54  29  39 E7        30.15R
HOUGHTON LAKE  MOCLDY    53  29  39 CALM      30.13R
6HR MIN TEMP:  53; 6HR MAX TEMP:  57;

MANISTEE       CLEAR     46  32  57 W8        30.14R
OSCODA         CLEAR     45  28  50 E5        30.16R
6HR MIN TEMP:  45; 6HR MAX TEMP:  52;

PELLSTON       CLEAR     54  28  36 S6        30.15R
6HR MIN TEMP:  54; 6HR MAX TEMP:  57;

ROGERS CITY    CLEAR     47  30  53 CALM      30.15R
TRAVERSE CITY  PTCLDY    53  32  44 E6        30.12R
6HR MIN TEMP:  53; 6HR MAX TEMP:  58;

$$
MIZ007>008-015-300100-
EASTERN UPPER MICHIGAN

CITY           SKY/WX    TMP DP  RH WIND       PRES   REMARKS
KINROSS          N/A     48  28  46 NW7       30.15R
6HR MIN TEMP:  48; 6HR MAX TEMP:  57;

MACKINAC ISLAN CLEAR     49  28  43 E5        30.15R
6HR MIN TEMP:  49; 6HR MAX TEMP:  54;

NEWBERRY       CLEAR     51  31  44 N9        30.15R
6HR MIN TEMP:  51; 6HR MAX TEMP:  59;

S. S. MARIE    CLEAR     51  29  42 W6        30.14R
6HR MIN TEMP:  51; 6HR MAX TEMP:  59;

MUNISING         N/A     41  35  79 N5        30.17R
6HR MIN TEMP:  41; 6HR MAX TEMP:  47;

$$
MIZ004>006-011>014-085-300100-
CENTRAL UPPER MICHIGAN

CITY           SKY/WX    TMP DP  RH WIND       PRES   REMARKS
MANISTIQUE     CLEAR     51  27  39 CALM      30.15R
6HR MIN TEMP:  49; 6HR MAX TEMP:  54;

ESCANABA       CLEAR     52  25  35 CALM      30.15S
6HR MIN TEMP:  52; 6HR MAX TEMP:  54;

MENOMINEE      PTCLDY    54  25  32 S3        30.14F
6HR MIN TEMP:  46; 6HR MAX TEMP:  54;

SAWYER-GWINN   CLEAR     45  30  57 N6        30.14R
$$
MIZ001>003-009>011-084-300100-
WESTERN UPPER MICHIGAN

CITY           SKY/WX    TMP DP  RH WIND       PRES   REMARKS
IRON MOUNTAIN  CLOUDY    56  27  32 S8        30.12R
6HR MIN TEMP:  55; 6HR MAX TEMP:  59;

HOUGHTON       CLEAR     47  30  51 E7        30.18R
6HR MIN TEMP:  47; 6HR MAX TEMP:  54;

COPPER HARBOR    N/A     41  35  79 CALM      30.21R
6HR MIN TEMP:  40; 6HR MAX TEMP:  44;

IRONWOOD         N/A     45  30  57 N6        30.16R
6HR MIN TEMP:  45; 6HR MAX TEMP:  50;

$$

ABBREVIATIONS USED IN REMARKS
   TC - TEMPERATURE IN CELSIUS
  WCI - WIND CHILL INDEX
   HX - HEAT INDEX
  VSB - VISIBILITY





USA.gov is the U.S. government's official web portal to all federal, state and local government web resources and services.